Location: Newark
(33.6439°N, 114.9881°W)
Time: 00:08:21
(UTC+00:00)

A-11 Canister half - Pass Details

Date: 30 August 2019
Orbit: 1527 x 1682 km, 47.3° (Epoch: 17 October)

Event Time Altitude Azimuth Distance (km) Brightness Sun altitude
Rises 21:52:31 0° 302° (WNW) 4,898 11.9 50.8°
Reaches altitude 10° 21:55:51 10° 308° (NW) 3,923 11.5 50.2°
Maximum altitude 22:05:34 49° 21° (NNE) 2,083 10.0 48.5°
Drops below altitude 10° 22:15:17 10° 95° (E) 3,931 10.9 46.7°
Sets 22:18:37 0° 100° (E) 4,908 11.3 46.0°
